Total_Precipitation_Accumulation
0.00 0.00 0.00 0.00 0.00 0.00 0.02 0.06 0.10 0.06 0.02 0.01 0.02 0.03 0.04 0.04 0.03 0.05 0.04 0.04 0.05 0.08 0.10 0.11 0.12 0.14 0.17 0.20 0.26 0.34 0.43 0.49 0.55 0.60 0.66 0.71 0.74 0.81
0.00 0.00 0.00 0.00 0.00 0.00 0.01 0.02 0.06 0.08 0.04 0.01 0.01 0.03 0.06 0.06 0.05 0.06 0.07 0.09 0.11 0.12 0.13 0.14 0.17 0.21 0.24 0.26 0.27 0.32 0.40 0.48 0.53 0.57 0.63 0.69 0.74 0.80
0.00 0.00 0.00 0.00 0.00 0.00 0.00 0.01 0.01 0.04 0.05 0.01 0.00 0.01 0.04 0.05 0.05 0.06 0.06 0.06 0.07 0.09 0.13 0.15 0.17 0.22 0.26 0.29 0.31 0.33 0.38 0.45 0.51 0.57 0.63 0.70 0.74 0.75
0.00 0.00 0.00 0.00 0.00 0.00 0.00 0.00 0.00 0.02 0.06 0.06 0.01 0.00 0.01 0.03 0.04 0.04 0.05 0.07 0.06 0.07 0.11 0.14 0.17 0.22 0.26 0.28 0.30 0.32 0.36 0.40 0.45 0.48 0.53 0.57 0.63 0.70
0.00 0.00 0.00 0.00 0.00 0.00 0.00 0.00 0.01 0.02 0.06 0.10 0.05 0.02 0.02 0.02 0.04 0.03 0.04 0.05 0.06 0.07 0.09 0.11 0.16 0.21 0.25 0.28 0.29 0.29 0.30 0.32 0.36 0.41 0.45 0.51 0.56 0.61
0.00 0.00 0.00 0.00 0.00 0.00 0.00 0.02 0.04 0.05 0.07 0.10 0.12 0.09 0.06 0.03 0.06 0.06 0.05 0.05 0.05 0.05 0.06 0.07 0.09 0.12 0.14 0.17 0.20 0.22 0.24 0.28 0.35 0.43 0.49 0.53 0.56 0.57
0.00 0.00 0.00 0.00 0.00 0.01 0.03 0.05 0.06 0.10 0.16 0.22 0.19 0.14 0.09 0.08 0.07 0.07 0.09 0.07 0.05 0.04 0.04 0.03 0.04 0.05 0.06 0.09 0.15 0.20 0.26 0.35 0.45 0.58 0.70 0.77 0.78 0.75
0.00 0.00 0.00 0.00 0.00 0.02 0.04 0.07 0.13 0.21 0.29 0.31 0.25 0.16 0.08 0.05 0.07 0.12 0.17 0.20 0.14 0.04 0.06 0.04 0.03 0.04 0.07 0.12 0.19 0.26 0.33 0.41 0.49 0.59 0.67 0.71 0.74 0.79
0.00 0.00 0.00 0.00 0.01 0.01 0.02 0.08 0.14 0.19 0.22 0.21 0.16 0.10 0.10 0.12 0.22 0.30 0.26 0.24 0.15 0.04 0.06 0.07 0.04 0.06 0.08 0.14 0.25 0.29 0.36 0.45 0.51 0.57 0.61 0.64 0.64 0.66
0.00 0.00 0.00 0.01 0.02 0.05 0.12 0.17 0.11 0.07 0.06 0.06 0.09 0.12 0.15 0.15 0.20 0.28 0.25 0.19 0.09 0.04 0.07 0.14 0.10 0.10 0.09 0.13 0.23 0.25 0.29 0.38 0.47 0.53 0.53 0.52 0.52 0.55
0.00 0.01 0.03 0.03 0.05 0.17 0.25 0.22 0.10 0.03 0.02 0.07 0.12 0.11 0.10 0.08 0.10 0.26 0.37 0.38 0.23 0.07 0.06 0.12 0.10 0.11 0.15 0.17 0.22 0.26 0.27 0.33 0.41 0.45 0.44 0.42 0.43 0.48
0.02 0.02 0.03 0.05 0.13 0.24 0.23 0.18 0.09 0.05 0.09 0.06 0.03 0.01 0.01 0.02 0.08 0.23 0.56 0.79 0.52 0.25 0.09 0.21 0.23 0.28 0.38 0.22 0.21 0.24 0.25 0.30 0.35 0.37 0.38 0.39 0.40 0.43
0.06 0.03 0.02 0.10 0.20 0.20 0.14 0.07 0.09 0.15 0.11 0.03 0.01 0.01 0.01 0.02 0.04 0.08 0.29 0.78 0.93 0.53 0.16 0.45 0.53 0.35 0.46 0.32 0.24 0.26 0.34 0.46 0.51 0.50 0.48 0.44 0.42 0.45
0.07 0.04 0.07 0.15 0.14 0.08 0.04 0.04 0.10 0.09 0.03 0.03 0.03 0.03 0.03 0.04 0.04 0.05 0.09 0.24 0.52 0.62 0.36 0.58 0.79 0.53 0.57 0.46 0.34 0.34 0.39 0.61 0.86 0.90 0.84 0.73 0.59 0.52
0.08 0.12 0.14 0.09 0.03 0.01 0.01 0.03 0.04 0.02 0.06 0.12 0.10 0.06 0.04 0.05 0.06 0.08 0.09 0.13 0.21 0.27 0.31 0.43 0.65 0.64 0.67 0.67 0.54 0.46 0.56 0.67 1.02 1.29 1.18 0.95 0.72 0.58
0.13 0.13 0.06 0.01 0.00 0.00 0.01 0.00 0.01 0.02 0.11 0.20 0.16 0.09 0.05 0.06 0.09 0.16 0.26 0.28 0.33 0.28 0.29 0.37 0.49 0.65 0.64 0.55 0.64 0.63 0.74 1.06 1.27 1.46 1.31 1.03 0.81 0.66
0.14 0.04 0.00 0.00 0.01 0.01 0.00 0.00 0.01 0.02 0.06 0.11 0.16 0.15 0.10 0.10 0.12 0.21 0.38 0.47 0.51 0.44 0.39 0.33 0.30 0.35 0.45 0.51 0.55 0.59 0.77 1.04 1.27 1.40 1.16 0.96 0.93 0.83
0.05 0.01 0.01 0.02 0.02 0.02 0.02 0.03 0.02 0.04 0.10 0.18 0.21 0.22 0.23 0.23 0.24 0.27 0.42 0.55 0.55 0.49 0.46 0.39 0.32 0.28 0.28 0.33 0.53 0.76 0.83 1.02 1.14 1.07 0.77 0.70 0.85 0.80
0.01 0.03 0.04 0.03 0.03 0.03 0.05 0.07 0.07 0.06 0.14 0.25 0.30 0.32 0.33 0.31 0.34 0.39 0.46 0.50 0.48 0.42 0.34 0.28 0.29 0.36 0.36 0.32 0.33 0.62 0.90 0.91 0.79 0.72 0.61 0.62 0.84 0.83
0.03 0.05 0.04 0.04 0.04 0.07 0.09 0.11 0.13 0.12 0.17 0.26 0.31 0.34 0.39 0.41 0.42 0.44 0.47 0.49 0.42 0.27 0.15 0.09 0.15 0.33 0.52 0.55 0.50 0.61 0.68 0.73 0.64 0.66 0.61 0.54 0.64 0.63
0.04 0.04 0.03 0.04 0.07 0.09 0.12 0.14 0.18 0.23 0.27 0.36 0.38 0.40 0.44 0.48 0.44 0.42 0.40 0.32 0.23 0.16 0.11 0.08 0.11 0.22 0.32 0.27 0.29 0.41 0.54 0.58 0.56 0.65 0.57 0.42 0.39 0.39
0.04 0.04 0.03 0.04 0.09 0.13 0.16 0.18 0.22 0.24 0.30 0.36 0.40 0.43 0.46 0.48 0.45 0.34 0.25 0.19 0.15 0.14 0.12 0.07 0.05 0.07 0.10 0.15 0.21 0.28 0.34 0.33 0.29 0.26 0.35 0.46 0.58 0.86
0.05 0.05 0.05 0.07 0.12 0.15 0.18 0.19 0.23 0.28 0.35 0.42 0.44 0.42 0.40 0.34 0.25 0.21 0.18 0.17 0.16 0.13 0.09 0.06 0.04 0.05 0.08 0.11 0.14 0.17 0.19 0.18 0.15 0.18 0.35 0.40 0.50 0.71